South Bend, IN

6:20 AM EDT on May 24, 2018 (GMT -0400)
South Bend Regional

Weather History for KSBN - January, 2014

Change the Weather History Date:

Thursday, January 30, 2014

  Actual Average Record
Temperature  
Mean Temperature 24 °F 25 °F  
Max Temperature 33 °F 32 °F 54 °F (1974)
Min Temperature 15 °F 18 °F -13 °F (1966)
Degree Days  
Heating Degree Days 41 40  
Month to date heating degree days 1368 1220  
Since 1 July heating degree days 3854 3611  
Cooling Degree Days 0 0  
Month to date cooling degree days 0 0  
Year to date cooling degree days 0 0  
Moisture  
Dew Point 13 °F    
Average Humidity 64    
Maximum Humidity 78    
Minimum Humidity 50    
Precipitation  
Precipitation T in 0.07 in 2.00 in (1909)
Month to date precipitation 3.05 2.23  
Year to date precipitation 3.05 2.23  
Snow  
Snow 0.00 in 0.70 in 8.00 in (2007)
Month to date snowfall 19.9  
Since 1 July snowfall 42.4  
Snow Depth -    
Sea Level Pressure  
Sea Level Pressure 29.91 in    
Wind  
Wind Speed 18 mph (SSW)    
Max Wind Speed 30 mph    
Max Gust Speed 39 mph    
Visibility 9 miles    
Events Snow    
T = Trace of Precipitation, MM = Missing Value Source: NWS Daily Summary

Daily Weather History Graph

Daily Weather History Graph

Search for Another Location

Airport or City:

Astronomy

Jan. 30, 2014 Rise Set
Actual Time 7:59 AM EST 5:58 PM EST
Civil Twilight 7:29 AM EST 6:27 PM EST
Nautical Twilight 6:56 AM EST 7:01 PM EST
Astronomical Twilight 6:23 AM EST 7:34 PM EST
Moon 7:24 AM EST (1/30) 6:10 PM EST (1/30)
Length of Visible Light 10h 58m
Length of Day
9h 58m
Waning Crescent, 0% of the Moon is Illuminated
Jan 30
Waning Crescent
Jan 30
New
Feb 6
First Quarter
Feb 14
Full
Feb 22
Last Quarter

Hourly Weather History & Observations

Time (EST) Temp. Windchill Dew Point Humidity Pressure Visibility Wind Dir Wind Speed Gust Speed Precip Events Conditions
12:54 AM 17.1 °F 1.5 °F 3.0 °F 54% 30.12 in 10.0 mi SSW 17.3 mph 23.0 mph N/A   Clear
1:54 AM 16.0 °F 1.7 °F 3.0 °F 57% 30.11 in 10.0 mi SSW 13.8 mph - N/A   Clear
2:54 AM 16.0 °F 0.1 °F 1.9 °F 54% 30.09 in 10.0 mi SSW 17.3 mph - N/A   Clear
3:54 AM 16.0 °F 1.1 °F 3.0 °F 57% 30.08 in 10.0 mi South 15.0 mph - N/A   Clear
4:54 AM 17.1 °F 2.0 °F 3.9 °F 56% 30.07 in 10.0 mi SSW 16.1 mph - N/A   Clear
5:54 AM 17.1 °F 1.5 °F 3.9 °F 56% 30.06 in 10.0 mi SSW 17.3 mph - N/A   Clear
6:54 AM 18.0 °F 2.2 °F 3.9 °F 54% 30.03 in 10.0 mi South 18.4 mph 24.2 mph N/A   Clear
7:54 AM 18.0 °F 2.2 °F 3.9 °F 54% 30.04 in 10.0 mi SSW 18.4 mph - N/A   Clear
8:54 AM 19.0 °F 4.5 °F 6.1 °F 57% 30.01 in 10.0 mi South 16.1 mph 23.0 mph N/A   Clear
9:54 AM 21.0 °F 6.6 °F 7.0 °F 55% 30.00 in 10.0 mi South 17.3 mph 26.5 mph N/A   Clear
10:54 AM 21.9 °F 7.8 °F 8.1 °F 55% 29.96 in 10.0 mi South 17.3 mph 28.8 mph N/A   Clear
11:54 AM 24.1 °F 9.4 °F 9.0 °F 53% 29.92 in 10.0 mi South 20.7 mph 28.8 mph N/A   Partly Cloudy
12:54 PM 26.1 °F 11.3 °F 10.9 °F 53% 29.86 in 10.0 mi South 23.0 mph 31.1 mph N/A   Mostly Cloudy
1:54 PM 27.0 °F 12.8 °F 12.0 °F 53% 29.77 in 7.0 mi South 21.9 mph 38.0 mph N/A   Clear
2:54 PM 28.0 °F 14.6 °F 12.0 °F 51% 29.75 in 9.0 mi South 20.7 mph 31.1 mph N/A   Partly Cloudy
3:54 PM 28.0 °F 16.5 °F 12.9 °F 53% 29.78 in 10.0 mi SSW 15.0 mph - N/A   Mostly Cloudy
4:32 PM 28.4 °F 13.0 °F 14.0 °F 55% 29.77 in 2.0 mi SW 28.8 mph 39.1 mph 0.00 in Snow Light Snow
4:54 PM 28.9 °F 14.3 °F 16.0 °F 58% 29.80 in 3.0 mi SW 26.5 mph 36.8 mph 0.00 in Snow Light Snow
5:12 PM 28.4 °F 12.7 °F 17.6 °F 64% 29.77 in 1.8 mi SW 29.9 mph 35.7 mph 0.00 in Snow Light Snow
5:42 PM 28.4 °F 15.4 °F 19.4 °F 69% 29.78 in 5.0 mi SW 19.6 mph 29.9 mph 0.00 in Snow Light Snow
5:54 PM 28.0 °F 14.9 °F 19.0 °F 69% 29.81 in 7.0 mi SW 19.6 mph 28.8 mph 0.00 in Snow Light Snow
6:54 PM 28.9 °F 16.5 °F 21.9 °F 75% 29.83 in 5.0 mi SW 18.4 mph 31.1 mph 0.00 in Snow Light Snow
7:29 PM 28.4 °F 16.2 °F 23.0 °F 80% 29.80 in 9.0 mi SW 17.3 mph 27.6 mph 0.00 in   Overcast
7:39 PM 28.4 °F 15.8 °F 23.0 °F 80% 29.80 in 10.0 mi SW 18.4 mph 27.6 mph 0.00 in   Overcast
7:54 PM 30.0 °F 17.9 °F 24.1 °F 79% 29.84 in 9.0 mi SW 18.4 mph 31.1 mph 0.00 in   Overcast
8:27 PM 30.2 °F 18.1 °F 24.8 °F 80% 29.81 in 10.0 mi SW 18.4 mph 25.3 mph N/A   Overcast
8:54 PM 30.0 °F 17.9 °F 24.1 °F 79% 29.85 in 10.0 mi SW 18.4 mph 28.8 mph N/A   Overcast
9:34 PM 30.2 °F 19.8 °F 24.8 °F 80% 29.83 in 10.0 mi WSW 13.8 mph 24.2 mph N/A   Overcast
9:54 PM 30.9 °F 20.2 °F 24.1 °F 76% 29.86 in 10.0 mi SW 15.0 mph 21.9 mph N/A   Overcast
10:54 PM 32.0 °F 21.6 °F 25.0 °F 75% 29.87 in 10.0 mi SW 15.0 mph - N/A   Overcast
11:54 PM 33.1 °F 24.4 °F 25.0 °F 72% 29.88 in 10.0 mi SW 11.5 mph - N/A   Overcast